Weather History for Alpine, TX

Change the Weather History Date:

Tuesday, March 5, 2013

  Actual Average (KMRF) Record (KMRF)
Temperature  
Mean Temperature 49 °F -  
Max Temperature 64 °F 62 °F 80 °F (2009)
Min Temperature 32 °F 31 °F 12 °F (2007)
Degree Days  
Heating Degree Days 16    
Moisture  
Dew Point 24 °F    
Average Humidity 44    
Maximum Humidity 69    
Minimum Humidity 19    
Precipitation  
Precipitation 0.00 in - - ()
Sea Level Pressure  
Sea Level Pressure 30.37 in    
Wind  
Wind Speed - (North)    
Max Wind Speed -    
Max Gust Speed -    
Visibility 10 miles    
Events      
Averages and records for this station are not official NWS values.
T = Trace of Precipitation, MM = Missing Value Source: NWS Daily Summary

Daily Weather History Graph

Daily Weather History Graph

Search for Another Location

Airport:

Trip Planner

Search our weather history database for the weather conditions in past years. The results will help you decide how hot, cold, wet, or windy it might be!

Date:

Astronomy

Mar. 05, 2013 Rise Set
Actual Time 7:16 AM CST 6:56 PM CST
Civil Twilight 6:52 AM CST 7:20 PM CST
Nautical Twilight 6:24 AM CST 7:48 PM CST
Astronomical Twilight 5:56 AM CST 8:16 PM CST
Moon 2:12 AM CST (3/5) 12:56 PM CST (3/5)
Length of Visible Light 12h 28m
Length of Day
11h 40m
Last Quarter, 40% of the Moon is Illuminated
Mar 5
Last Quarter
Mar 11
New
Mar 19
First Quarter
Mar 27
Full
Apr 2
Last Quarter

Hourly Weather History & Observations

Time (CST) Temp. Dew Point Humidity Pressure Visibility Wind Dir Wind Speed Gust Speed Precip Events Conditions
12:15 AM 64.8 °F 21.7 °F 19% 30.11 in 10.0 mi North - - N/A   Overcast
12:35 AM 62.6 °F 21.2 °F 20% 30.12 in 10.0 mi North - - N/A   Overcast
12:55 AM 61.7 °F 20.5 °F 20% 30.13 in 10.0 mi North - - N/A   Mostly Cloudy
1:15 AM 60.4 °F 19.9 °F 21% 30.15 in 10.0 mi North - - N/A   Scattered Clouds
1:35 AM 61.5 °F 19.4 °F 20% 30.16 in 10.0 mi North - - N/A   Clear
1:55 AM 59.5 °F 18.9 °F 21% 30.17 in 10.0 mi North - - N/A   Clear
2:15 AM 57.7 °F 18.3 °F 22% 30.18 in 10.0 mi North - - N/A   Clear
3:15 AM 53.4 °F 18.0 °F 25% 30.20 in 10.0 mi North - - N/A   Clear
3:35 AM 53.6 °F 22.1 °F 29% 30.23 in 10.0 mi North - - N/A   Scattered Clouds
3:55 AM 50.2 °F 32.7 °F 51% 30.27 in 7.0 mi North - - N/A   Mostly Cloudy
4:15 AM 46.8 °F 33.6 °F 60% 30.30 in 7.0 mi North - - N/A   Overcast
4:55 AM 44.1 °F 32.4 °F 63% 30.35 in 10.0 mi North - - N/A   Overcast
5:15 AM 43.0 °F 32.4 °F 66% 30.36 in 10.0 mi North - - N/A   Overcast
5:35 AM 41.9 °F 32.5 °F 69% 30.37 in 10.0 mi North - - N/A   Overcast
5:55 AM 40.5 °F 30.6 °F 68% 30.38 in 5.0 mi North - - N/A   Overcast
6:15 AM 39.6 °F 29.3 °F 67% 30.39 in 7.0 mi North - - N/A   Overcast
6:35 AM 39.0 °F 28.8 °F 67% 30.40 in 7.0 mi North - - N/A   Overcast
6:55 AM 38.3 °F 27.9 °F 66% 30.42 in 10.0 mi North - - N/A   Overcast
7:15 AM 37.8 °F 27.7 °F 67% 30.42 in 10.0 mi North - - N/A   Overcast
7:35 AM 37.2 °F 27.5 °F 68% 30.43 in 10.0 mi North - - N/A   Mostly Cloudy
7:55 AM 36.7 °F 27.3 °F 69% 30.44 in 10.0 mi North - - N/A   Scattered Clouds
8:15 AM 37.2 °F 27.1 °F 67% 30.45 in 10.0 mi North - - N/A   Clear
8:35 AM 38.5 °F 27.1 °F 64% 30.45 in 10.0 mi North - - N/A   Clear
8:55 AM 38.5 °F 27.1 °F 64% 30.46 in 10.0 mi North - - N/A   Clear
9:15 AM 38.1 °F 26.4 °F 63% 30.47 in 10.0 mi North - - N/A   Clear
9:35 AM 39.2 °F 26.1 °F 59% 30.47 in 10.0 mi North - - N/A   Clear
9:55 AM 40.1 °F 25.3 °F 56% 30.47 in 10.0 mi North - - N/A   Clear
10:15 AM 41.0 °F 24.6 °F 52% 30.47 in 10.0 mi North - - N/A   Clear
10:35 AM 41.9 °F 24.3 °F 50% 30.47 in 10.0 mi North - - N/A   Clear
10:55 AM 42.4 °F 24.3 °F 49% 30.47 in 10.0 mi North - - N/A   Clear
11:15 AM 43.7 °F 24.1 °F 46% 30.47 in 10.0 mi North - - N/A   Clear
11:35 AM 43.7 °F 23.4 °F 45% 30.47 in 10.0 mi North - - N/A   Clear
11:55 AM 44.8 °F 23.2 °F 43% 30.46 in 10.0 mi North - - N/A   Clear
12:15 PM 46.8 °F 23.5 °F 40% 30.45 in 10.0 mi North - - N/A   Clear
12:35 PM 46.9 °F 23.0 °F 39% 30.45 in 10.0 mi North - - N/A   Clear
12:55 PM 48.6 °F 23.4 °F 37% 30.44 in 10.0 mi North - - N/A   Clear
1:15 PM 46.8 °F 22.8 °F 39% 30.43 in 10.0 mi North - - N/A   Clear
1:35 PM 48.9 °F 23.5 °F 37% 30.43 in 10.0 mi North - - N/A   Clear
1:55 PM 48.7 °F 23.5 °F 37% 30.42 in 10.0 mi North - - N/A   Clear
2:15 PM 49.1 °F 24.3 °F 38% 30.41 in 10.0 mi North - - N/A   Clear
2:35 PM 50.4 °F 24.1 °F 36% 30.40 in 10.0 mi North - - N/A   Clear
2:55 PM 50.9 °F 23.9 °F 35% 30.39 in 10.0 mi North - - N/A   Clear
3:15 PM 51.6 °F 23.7 °F 34% 30.39 in 10.0 mi North - - N/A   Clear
3:35 PM 52.7 °F 24.1 °F 33% 30.38 in 10.0 mi North - - N/A   Clear
3:55 PM 53.2 °F 23.9 °F 32% 30.37 in 10.0 mi North - - N/A   Clear
4:15 PM 53.6 °F 24.1 °F 32% 30.36 in 10.0 mi North - - N/A   Clear
4:35 PM 54.3 °F 23.9 °F 31% 30.35 in 10.0 mi North - - N/A   Clear
4:55 PM 54.3 °F 23.9 °F 31% 30.35 in 10.0 mi North - - N/A   Clear
5:15 PM 53.8 °F 23.9 °F 31% 30.35 in 10.0 mi North - - N/A   Clear
5:35 PM 54.0 °F 23.7 °F 31% 30.34 in 10.0 mi North - - N/A   Clear
5:55 PM 53.6 °F 23.7 °F 31% 30.35 in 10.0 mi North - - N/A   Clear
6:15 PM 53.4 °F 23.5 °F 31% 30.35 in 10.0 mi North - - N/A   Clear
6:35 PM 52.0 °F 23.4 °F 33% 30.36 in 10.0 mi North - - N/A   Clear
6:55 PM 50.2 °F 23.0 °F 35% 30.36 in 10.0 mi North - - N/A   Clear
7:15 PM 48.0 °F 22.8 °F 37% 30.37 in 10.0 mi North - - N/A   Clear
7:35 PM 46.4 °F 22.5 °F 39% 30.37 in 10.0 mi North - - N/A   Clear
7:55 PM 45.7 °F 22.1 °F 39% 30.38 in 10.0 mi North - - N/A   Clear
8:15 PM 43.2 °F 20.8 °F 41% 30.38 in 10.0 mi North - - N/A   Clear
8:35 PM 42.1 °F 21.2 °F 43% 30.37 in 10.0 mi North - - N/A   Clear
8:55 PM 38.3 °F 20.1 °F 48% 30.37 in 10.0 mi North - - N/A   Clear
9:15 PM 40.1 °F 20.8 °F 46% 30.37 in 10.0 mi North - - N/A   Clear
9:35 PM 38.1 °F 20.3 °F 49% 30.36 in 10.0 mi North - - N/A   Clear
9:55 PM 39.0 °F 20.7 °F 48% 30.37 in 10.0 mi North - - N/A   Clear
10:15 PM 38.8 °F 20.5 °F 48% 30.37 in 10.0 mi North - - N/A   Clear
10:35 PM 38.1 °F 20.5 °F 49% 30.38 in 10.0 mi North - - N/A   Clear
10:55 PM 34.7 °F 19.6 °F 54% 30.37 in 10.0 mi North - - N/A   Clear
11:15 PM 35.1 °F 19.4 °F 53% 30.37 in 10.0 mi North - - N/A   Clear
11:35 PM 35.1 °F 19.6 °F 53% 30.36 in 10.0 mi North - - N/A   Clear
11:55 PM 32.9 °F 19.4 °F 58% 30.36 in 10.0 mi North - - N/A   Clear